Weather in Jordan

Philippines     10°39′41″N   122°35′26″E
temp.,
°C
wind,
m/s
gust,
m/s
humid.,
%
clouds,
%
prec.,
mm/h
press.,
hPa
HPBL,
m
14 april, wed
wed1423:00+26nne3575100 0.0 1011159
02:00+25nne3674100 0.1 1009178
05:00+25nne257998 0.0 1009157
08:00+29nne456411 0.0 1011795
11:00+32ne555456 0.4 10101364
14:00+32ne555631 1.9 10081159
17:00+30nne356322 3.7 1007828
20:00+26nne358091 4.8 1009118
15 april, thu
thu1523:00+26nne3581100 0.8 1010128
02:00+25nne3683100 0.8 1008171
05:00+25nne3585100 0.0 1008158
08:00+28nne466999 0.0 1010689
11:00+31nne5556100 0.0 10091166
14:00+33nne4452100 0.2 10071495
17:00+29nne3567100 2.0 1007395
20:00+26nne3680100 2.8 1010196
16 april, fri
fri1623:00+26nne3782100 0.0 1010249
02:00+25nne378398 0.0 1009248
05:00+25nne3686100 0.3 1009213
08:00+27nne5976100 0.3 1011685
11:00+32ne565452 0.0 10101378
14:00+32nne5652100 0.2 10071495
17:00+29ne4664100 0.0 1007534
20:00+27nne377498 0.1 1010271
17 april, sat
sat1723:00+26nne3775100 0.0 1011202
02:00+25nne367793 0.0 1008187
05:00+25nne3578100 0.0 1009168
08:00+27nne4773100 0.0 1011556
11:00+32nne5652100 0.0 10091321
14:00+33nne5647100 0.1 10061428
17:00+30n4662100 0.4 1007717
20:00+27nne3573100 0.7 1009166
18 april, sun
sun1823:00+26wnw1174100 0.1 100943
02:00+25nnw1180100 1.1 100844
05:00+24nw1182100 0.3 100839
08:00+27sw1171100 0.3 1009251
11:00+29s1260100 0.0 10091000
14:00+30ssw3356100 0.0 1006987
17:00+29wsw1255100 0.0 100572
20:00+26wnw2369100 0.0 1008105